Regional Weather Roundup
Issued by NWS

Home | Current Version | Previous Version | Text Only | Print | Product List | Glossary Off
Versions: 1 2 3 4 5 6 7 8 9 10 11 12 13 14 15 16 17 18 19 20 21 22 23 24 25 26 27 28 29 30 31 32 33 34 35 36 37 38 39 40 41 42 43 44 45 46 47 48 49 50

000
ASUS45 KBOU 311607
RWRCO

WEATHER ROUNDUP FOR COLORADO
NATIONAL WEATHER SERVICE DENVER/BOULDER CO
1000 AM MDT SUN AUG 31 2014

NOTE: "FAIR" INDICATES FEW OR NO CLOUDS BELOW 12000 FEET WITH NO
SIGNIFICANT WEATHER AND/OR OBSTRUCTIONS TO VISIBILITY.

COZ001>005-013-030-031-311700-
...NORTHWEST COLORADO...

CITY           SKY/WX    TMP DP  RH WIND       PRES   REMARKS
CRAIG          CLOUDY    58  50  75 N12       30.07R
HAYDEN         CLOUDY    55  48  76 E5        30.07S
MEEKER         PTSUNNY   65  47  52 NW8       30.05R
MOUNT WERNER   NOT AVBL
STEAMBOAT SPGS CLOUDY    54  51  88 NW8       30.09R
WALDEN         CLOUDY    46  43  87 CALM      30.14R VSB 1
$$

COZ006>008-011-311700-
...WEST CENTRAL VALLEYS...

CITY           SKY/WX    TMP DP  RH WIND       PRES   REMARKS
GRAND JUNCTION MOSUNNY   74  42  31 SE9       29.92R
MONTROSE       MOSUNNY   74  38  27 E3        30.03R
EAGLE          CLOUDY    57  50  77 NE12      30.04F
RIFLE          PTSUNNY   62  50  64 S5        29.97S
DELTA          NOT AVBL
NUCLA          MOSUNNY   77  36  22 SW12G21   30.08S
$$

COZ017>023-064>068-311700-
...SOUTHWEST COLORADO...

CITY           SKY/WX    TMP DP  RH WIND       PRES   REMARKS
DURANGO        SUNNY     67  40  37 VRB3      30.17S
CORTEZ         SUNNY     77  40  26 S12       30.11R
PAGOSA SPRINGS SUNNY     65  33  29 S9        30.24R
TELLURIDE      MOSUNNY   64  32  29 SW12G17   30.28S
WOLF CREEK PAS CLOUDY    41  34  75 SW14G22   30.47R
$$

COZ009-010-012-014-032>034-037-058>063-311700-
...CENTRAL COLORADO...

CITY           SKY/WX    TMP DP  RH WIND       PRES   REMARKS
ASPEN          CLOUDY    65  34  31 W10G24    30.10F
BUENA VISTA    MOSUNNY   71  29  20 W21G28    30.11S
COPPER MTN     LGT RAIN  41  34  75 SW15G25   30.39R
BERTHOUD PASS  SNOW      32  32 100 W15       30.40S VSB 1/4 WCI  22
COTTONWOOD PAS PTSUNNY   63  27  25 W22G32    30.24S
GUNNISON       MOSUNNY   57  43  58 E3        30.18F
KREMMLING      CLOUDY    54  45  71 CALM      30.12S
LEADVILLE      CLOUDY    54  32  43 W15G26    30.26R
MONARCH PASS   MOSUNNY   48  32  53 W24G40    30.50S
SALIDA         MOSUNNY   73  35  25 SW10      30.17S
SUNLIGHT       CLOUDY    52  37  58 CALM      30.30R
WILKERSON PASS NOT AVBL
$$

COZ069>075-311700-
...SAN LUIS VALLEY/SANGRE DE CRISTO MOUNTAINS...

CITY           SKY/WX    TMP DP  RH WIND       PRES   REMARKS
ALAMOSA        SUNNY     72  39  30 S14       30.16S
LA VETA PASS   NOT AVBL
SAGUACHE       NOT AVBL
$$

COZ035-036-038>040-311700-
...NORTHERN COLORADO FRONT RANGE...

CITY           SKY/WX    TMP DP  RH WIND       PRES   REMARKS
DENVER INTL AP PTSUNNY   64  50  60 NE15      29.99R
DMNS CITY PARK   N/A     67  51  55 NE13      29.99R
AURORA         PTSUNNY   65  50  58 NE9       30.01R
FRONT RANGE AP MOSUNNY   64  52  63 NE15      30.00R
ERIE MUNI ARPT PTSUNNY   65  51  61 CALM      29.98R
BOULDER MUN AP PTSUNNY   68  50  52 SE6       29.98R
CENTENNIAL     MOSUNNY   66  49  54 N13       30.01R
BROOMFIELD     PTSUNNY   66  50  55 CALM      30.01R
FORT COLLINS   PTSUNNY   63  52  67 W9        29.97R
LONGMONT       PTSUNNY   70  52  52 S5        29.99R
$$

COZ041-046-047-076>085-087-088-311700-
...PIKES PEAK/PALMER DIVIDE AND SOUTHERN FOOTHILLS...

CITY           SKY/WX    TMP DP  RH WIND       PRES   REMARKS
COLO. SPRINGS  MOSUNNY   72  45  37 SE8       29.99S
A. F. ACADEMY  SUNNY     69  47  45 CALM      29.99F
ELLICOTT       SUNNY     76  44  32 SW9       29.98R
FALCON         SUNNY     72  44  36 S8        30.04S
FORT CARSON    SUNNY     72  47  41 E5        29.96S
LIMON          MOSUNNY   71  47  42 N22       29.94R
MONUMENT HILL  SUNNY     68  43  40 NW10      30.05R
TRINIDAD       SUNNY     85  35  16 SW20      29.98S
$$

COZ042>045-048>051-090-091-311700-
...NORTHEAST COLORADO...

CITY           SKY/WX    TMP DP  RH WIND       PRES   REMARKS
GREELEY ARPT   CLOUDY    68  52  56 N17G24    29.94S
AKRON          CLOUDY    63  51  65 N21       29.93S
BURLINGTON     PTSUNNY   78  57  48 SW12      29.84R
WRAY             N/A     71  54  54 N20G25    29.86R
STERLING       CLOUDY    70  55  60 N10G16    29.89R
HOLYOKE        CLOUDY    66  55  68 N13G20    29.88R
FORT MORGAN    CLOUDY    64  50  60 N13       29.93R
$$

COZ086-089-092>099-311700-
...SOUTHEAST COLORADO...

CITY           SKY/WX    TMP DP  RH WIND       PRES   REMARKS
PUEBLO         SUNNY     73  46  38 CALM      29.89F
LA JUNTA       SUNNY     77  48  35 SW10      29.87S
LAMAR          MOSUNNY   73  54  51 W9        29.82S
SPRINGFIELD      N/A     87  45  23 W18G25    29.87S
$$



USA.gov is the U.S. government's official web portal to all federal, state and local government web resources and services.